Flag for Canada Weather past 2 weeks in Moncton, New Brunswick, Canada

Now
5 °F

Clear.


Feels Like: -16 °F
Forecast: 0 / 12 °F
Wind: 21 mph from West

Location: Moncton

Current Time: Jan 26, 2015 at 5:25:37 AM

Latest Report: Jan 26, 2015 at 4:00 AM


Visibility: 15 mi

Pressure: 29.86 "Hg

Humidity: 60%

Dew point: -6 °F

Location of MonctonLocation

Historic Weather in Moncton — Graph

°F

Moncton temperature yesterday

Maximum temperature yesterday: 32 °F (at 12:00 AM)
Minimum temperature yesterday: 10 °F (at 10:00 PM)
Average temperature yesterday: 27 °F

Past Weeks' High & Low Weather Summary

 TemperatureHumidityPressure
High46 °F (Jan 19, 11:00 AM)100% (Jan 19, 4:00 PM)30.59 "Hg (Jan 19, 4:00 PM)
Low-9 °F (Jan 14, 5:00 AM)45% (Jan 14, 2:00 PM)28.64 "Hg (Jan 25, 2:00 AM)
Average18 °F74%29.93 "Hg
* Reported Jan 11 4:00 AM — Jan 26 4:00 AM, Moncton, Weather by CustomWeather, © 2014

Note: Actual official high and low records may vary slightly from our data, if they occured in-between our weather recording intervals... More about our weather records

Advertising

Moncton weather history for previous 24 hours

 ConditionsComfort  
Time TempWeatherWind HumidityBarometerVisibility
4:00 AM
Jan 26
5 °FClear.21 mph60%29.86 "Hg15 mi
3:00 AM5 °FClear.18 mph66%29.82 "Hg15 mi
2:00 AM7 °FClear.20 mph66%29.78 "Hg15 mi
1:00 AM9 °FClear.22 mph61%29.72 "Hg15 mi
12:00 AM9 °FClear.22 mph66%29.67 "Hg15 mi
11:00 PM
Jan 25
10 °FClear.23 mph61%29.62 "Hg15 mi
10:00 PM10 °FClear.24 mph61%29.57 "Hg15 mi
9:00 PM12 °FLow level haze.26 mph57%29.53 "Hg15 mi
8:00 PM14 °FClear.24 mph57%29.48 "Hg15 mi
7:00 PM18 °FLow level haze.20 mph68%29.41 "Hg15 mi
6:00 PM23 °FPassing clouds.30 mph58%29.35 "Hg15 mi
5:00 PM23 °FLow level haze.21 mph63%29.31 "Hg15 mi
4:00 PM27 °FLow level haze.26 mph59%29.28 "Hg15 mi
3:00 PM28 °FPartly sunny.29 mph64%29.24 "Hg15 mi
2:00 PM32 °FPartly sunny.33 mph64%29.19 "Hg15 mi
1:00 PM32 °FPartly sunny.17 mph80%29.20 "Hg15 mi
12:00 PM30 °FPartly sunny.18 mph80%29.18 "Hg15 mi
11:00 AM30 °FMostly cloudy.18 mph80%29.18 "Hg15 mi
10:00 AM28 °FOvercast.21 mph80%29.15 "Hg15 mi
9:00 AM28 °FMostly cloudy.20 mph86%29.10 "Hg15 mi
8:00 AM28 °FMostly cloudy.21 mph86%29.04 "Hg15 mi
7:00 AM28 °FOvercast.25 mph86%28.97 "Hg12 mi
6:00 AM30 °FMostly cloudy.20 mph86%28.90 "Hg15 mi
5:52 AM30 °FMostly cloudy.23 mph86%28.88 "Hg15 mi
5:00 AM30 °FLight snow. Mostly cloudy.25 mph86%28.80 "Hg2 mi
Weather by CustomWeather, © 2014

See weather overviewHow to use our weather pages